User: anonymous
Location: SAPM � Hemmingford
(45.0500°N, 73.5833°W)
Time: 02:43:50
(UTC-04:00)
Language:

Cosmos 1603 - Orbit

View from above orbital plane
View from above orbital plane
View from above satellite
View from above satellite

Ground track
Ground track

The orbit data is extracted from the following two-line orbital elements,

1 15333U 84106A   14204.31563448 -.00000340  00000-0 -15365-3 0   385
2 15333 071.0274 151.5358 0019348 013.3279 149.3662 14.13942727538441
Epoch (UTC): 23 July 2014 07:34:30
Eccentricity: 0.0019348
inclination: 71.0274°
perigee height: 832 km
apogee height: 860 km
right ascension of ascending node: 151.5358°
argument of perigee: 13.3279°
revolutions per day: 14.13942727
mean anomaly at epoch: 149.3662°
orbit number at epoch: 53844

The dashed part of the orbit path shows where the satellite is in the earth's shadow,  

DLR